Time,TemperatureF,DewpointF,PressureIn,WindDirection,WindDirectionDegrees,WindSpeedMPH,WindSpeedGustMPH,Humidity,HourlyPrecipIn,Conditions,Clouds,dailyrainin,SoftwareType,DateUTC
2013-09-29 00:01:00,75.7,71.0,30.00,ENE,67,5.8,18.0,88,0.12,,,0.01,Rainwise IP-100,2013-09-29 04:01:00,
2013-09-29 00:06:00,75.9,72.0,29.98,East,90,3.3,10.0,88,0.42,,,0.05,Rainwise IP-100,2013-09-29 04:06:00,
2013-09-29 00:11:00,76.0,72.0,29.98,SE,135,6.3,6.3,88,0.30,,,0.06,Rainwise IP-100,2013-09-29 04:11:00,
2013-09-29 00:16:00,76.2,72.0,29.99,ENE,67,0.0,6.0,88,0.06,,,0.06,Rainwise IP-100,2013-09-29 04:16:00,
2013-09-29 00:21:00,76.4,72.0,29.98,WNW,292,0.0,3.0,88,0.00,,,0.06,Rainwise IP-100,2013-09-29 04:21:00,
2013-09-29 00:27:00,76.5,72.0,29.98,NNW,337,3.5,3.5,88,0.00,,,0.06,Rainwise IP-100,2013-09-29 04:27:00,
2013-09-29 00:32:00,76.6,73.0,29.98,NW,315,0.0,5.0,89,0.00,,,0.06,Rainwise IP-100,2013-09-29 04:32:00,
2013-09-29 00:37:00,76.8,73.0,29.98,NNE,22,4.0,9.0,88,0.00,,,0.06,Rainwise IP-100,2013-09-29 04:37:00,
2013-09-29 00:42:00,77.5,73.0,29.99,NNE,22,5.4,12.0,86,0.00,,,0.06,Rainwise IP-100,2013-09-29 04:42:00,
2013-09-29 00:47:00,78.3,72.0,29.98,NNW,337,6.8,10.0,83,0.00,,,0.06,Rainwise IP-100,2013-09-29 04:47:00,
2013-09-29 00:52:00,78.7,72.0,29.98,NE,45,8.4,12.0,81,0.00,,,0.06,Rainwise IP-100,2013-09-29 04:52:00,
2013-09-29 00:57:00,79.2,72.0,29.98,NNE,22,7.0,14.0,79,0.00,,,0.06,Rainwise IP-100,2013-09-29 04:57:00,
2013-09-29 01:03:00,79.5,72.0,29.98,NNE,22,3.7,8.0,78,0.00,,,0.06,Rainwise IP-100,2013-09-29 05:03:00,
2013-09-29 01:08:00,79.6,72.0,29.97,NE,45,7.5,13.0,77,0.00,,,0.06,Rainwise IP-100,2013-09-29 05:08:00,
2013-09-29 01:13:00,79.9,71.0,29.97,ENE,67,11.9,14.0,76,0.00,,,0.06,Rainwise IP-100,2013-09-29 05:13:00,
2013-09-29 01:18:00,80.2,71.0,29.97,ENE,67,8.2,16.0,74,0.00,,,0.06,Rainwise IP-100,2013-09-29 05:18:00,
2013-09-29 01:23:00,80.4,71.0,29.97,NE,45,10.5,16.0,73,0.00,,,0.06,Rainwise IP-100,2013-09-29 05:23:00,
2013-09-29 01:28:00,80.5,71.0,29.96,ESE,112,3.3,16.0,73,0.00,,,0.06,Rainwise IP-100,2013-09-29 05:28:00,
2013-09-29 01:33:00,80.5,71.0,29.95,ENE,67,9.6,14.0,73,0.00,,,0.06,Rainwise IP-100,2013-09-29 05:33:00,
2013-09-29 01:38:00,80.6,71.0,29.96,NE,45,4.2,14.0,72,0.00,,,0.06,Rainwise IP-100,2013-09-29 05:38:00,
2013-09-29 01:44:00,80.7,71.0,29.96,ENE,67,5.1,15.0,72,0.00,,,0.06,Rainwise IP-100,2013-09-29 05:44:00,
2013-09-29 01:49:00,80.6,71.0,29.96,ENE,67,6.3,13.0,73,0.00,,,0.06,Rainwise IP-100,2013-09-29 05:49:00,
2013-09-29 01:54:00,80.6,71.0,29.96,NE,45,7.2,11.0,72,0.00,,,0.06,Rainwise IP-100,2013-09-29 05:54:00,
2013-09-29 01:59:00,80.7,71.0,29.97,ENE,67,7.0,13.0,72,0.00,,,0.06,Rainwise IP-100,2013-09-29 05:59:00,
2013-09-29 02:04:00,80.6,71.0,29.97,ENE,67,11.7,12.0,72,0.00,,,0.06,Rainwise IP-100,2013-09-29 06:04:00,
2013-09-29 02:09:00,80.6,70.0,29.97,ENE,67,10.3,13.0,71,0.00,,,0.06,Rainwise IP-100,2013-09-29 06:09:00,
2013-09-29 02:14:00,80.7,71.0,29.96,NE,45,8.6,12.0,72,0.00,,,0.06,Rainwise IP-100,2013-09-29 06:14:00,
2013-09-29 02:20:00,80.7,71.0,29.96,NE,45,11.2,14.0,72,0.00,,,0.06,Rainwise IP-100,2013-09-29 06:20:00,
2013-09-29 02:25:00,80.7,71.0,29.95,NE,45,10.3,12.0,72,0.00,,,0.06,Rainwise IP-100,2013-09-29 06:25:00,
2013-09-29 02:30:00,80.6,71.0,29.95,ENE,67,7.7,15.0,72,0.00,,,0.06,Rainwise IP-100,2013-09-29 06:30:00,
2013-09-29 02:35:00,80.6,71.0,29.95,NNE,22,7.2,11.0,72,0.00,,,0.06,Rainwise IP-100,2013-09-29 06:35:00,
2013-09-29 02:40:00,80.6,71.0,29.95,NE,45,7.2,12.0,73,0.00,,,0.06,Rainwise IP-100,2013-09-29 06:40:00,
2013-09-29 02:45:00,80.6,71.0,29.94,East,90,7.0,12.0,74,0.00,,,0.06,Rainwise IP-100,2013-09-29 06:45:00,
2013-09-29 02:50:00,80.6,71.0,29.95,ENE,67,5.6,12.0,74,0.00,,,0.06,Rainwise IP-100,2013-09-29 06:50:00,
2013-09-29 02:55:00,80.5,71.0,29.94,ENE,67,7.0,12.0,74,0.00,,,0.06,Rainwise IP-100,2013-09-29 06:55:00,
2013-09-29 03:01:00,80.5,71.0,29.94,NE,45,11.2,11.2,74,0.00,,,0.06,Rainwise IP-100,2013-09-29 07:01:00,
2013-09-29 03:06:00,80.5,71.0,29.94,ENE,67,7.2,13.0,73,0.00,,,0.06,Rainwise IP-100,2013-09-29 07:06:00,
2013-09-29 03:11:00,80.5,71.0,29.94,East,90,4.4,9.0,73,0.00,,,0.06,Rainwise IP-100,2013-09-29 07:11:00,
2013-09-29 03:16:00,80.5,71.0,29.94,ENE,67,4.9,10.0,73,0.00,,,0.06,Rainwise IP-100,2013-09-29 07:16:00,
2013-09-29 03:21:00,80.5,71.0,29.94,ENE,67,8.4,10.0,73,0.00,,,0.06,Rainwise IP-100,2013-09-29 07:21:00,
2013-09-29 03:26:00,80.5,71.0,29.94,ENE,67,5.1,9.0,73,0.00,,,0.06,Rainwise IP-100,2013-09-29 07:26:00,
2013-09-29 03:31:00,80.5,71.0,29.94,ENE,67,6.1,10.0,73,0.00,,,0.06,Rainwise IP-100,2013-09-29 07:31:00,
2013-09-29 03:37:00,80.5,71.0,29.94,ENE,67,6.3,11.0,73,0.00,,,0.06,Rainwise IP-100,2013-09-29 07:37:00,
2013-09-29 03:42:00,80.5,71.0,29.95,ENE,67,4.2,11.0,72,0.00,,,0.06,Rainwise IP-100,2013-09-29 07:42:00,
2013-09-29 03:47:00,80.5,71.0,29.94,ENE,67,7.0,9.0,72,0.00,,,0.06,Rainwise IP-100,2013-09-29 07:47:00,
2013-09-29 03:52:00,80.5,71.0,29.94,ENE,67,4.2,11.0,72,0.00,,,0.06,Rainwise IP-100,2013-09-29 07:52:00,
2013-09-29 03:57:00,80.5,71.0,29.94,NNE,22,7.5,9.0,72,0.00,,,0.06,Rainwise IP-100,2013-09-29 07:57:00,
2013-09-29 04:02:00,80.5,71.0,29.93,ENE,67,5.6,11.0,73,0.00,,,0.06,Rainwise IP-100,2013-09-29 08:02:00,
2013-09-29 04:07:00,80.5,71.0,29.94,ENE,67,4.2,9.0,74,0.00,,,0.06,Rainwise IP-100,2013-09-29 08:07:00,
2013-09-29 04:12:00,80.5,71.0,29.94,ENE,67,7.7,11.0,74,0.00,,,0.06,Rainwise IP-100,2013-09-29 08:12:00,
2013-09-29 04:18:00,80.5,71.0,29.94,ENE,67,5.1,11.0,73,0.00,,,0.06,Rainwise IP-100,2013-09-29 08:18:00,
2013-09-29 04:23:00,80.6,71.0,29.94,East,90,3.3,9.0,73,0.00,,,0.06,Rainwise IP-100,2013-09-29 08:23:00,
2013-09-29 04:28:00,80.6,71.0,29.95,ENE,67,7.7,7.7,72,0.00,,,0.06,Rainwise IP-100,2013-09-29 08:28:00,
2013-09-29 04:33:00,80.6,71.0,29.94,ENE,67,3.3,11.0,72,0.00,,,0.06,Rainwise IP-100,2013-09-29 08:33:00,
2013-09-29 04:38:00,80.6,71.0,29.94,ENE,67,6.8,10.0,72,0.00,,,0.06,Rainwise IP-100,2013-09-29 08:38:00,
2013-09-29 04:43:00,80.6,71.0,29.95,North,360,1.4,10.0,73,0.00,,,0.06,Rainwise IP-100,2013-09-29 08:43:00,
2013-09-29 04:48:00,80.6,71.0,29.94,ENE,67,2.6,10.0,73,0.00,,,0.06,Rainwise IP-100,2013-09-29 08:48:00,
2013-09-29 04:54:00,80.6,71.0,29.95,ENE,67,7.2,11.0,73,0.00,,,0.06,Rainwise IP-100,2013-09-29 08:54:00,
2013-09-29 04:59:00,80.6,71.0,29.95,ENE,67,3.7,8.0,73,0.00,,,0.06,Rainwise IP-100,2013-09-29 08:59:00,
2013-09-29 05:04:00,80.5,71.0,29.95,ENE,67,4.0,7.0,73,0.00,,,0.06,Rainwise IP-100,2013-09-29 09:04:00,
2013-09-29 05:09:00,80.5,71.0,29.95,ENE,67,4.9,7.0,73,0.00,,,0.06,Rainwise IP-100,2013-09-29 09:09:00,
2013-09-29 05:14:00,80.6,71.0,29.95,ENE,67,4.7,9.0,73,0.00,,,0.06,Rainwise IP-100,2013-09-29 09:14:00,
2013-09-29 05:19:00,80.6,71.0,29.95,ENE,67,2.3,6.0,74,0.00,,,0.06,Rainwise IP-100,2013-09-29 09:19:00,
2013-09-29 05:24:00,80.5,71.0,29.95,ENE,67,1.4,6.0,74,0.00,,,0.06,Rainwise IP-100,2013-09-29 09:24:00,
2013-09-29 05:29:00,80.5,71.0,29.95,NE,45,5.6,7.0,74,0.00,,,0.06,Rainwise IP-100,2013-09-29 09:29:00,
2013-09-29 05:35:00,80.5,71.0,29.95,WNW,292,3.3,6.0,74,0.00,,,0.06,Rainwise IP-100,2013-09-29 09:35:00,
2013-09-29 05:40:00,79.4,71.0,29.95,WNW,292,1.9,4.0,76,0.00,,,0.06,Rainwise IP-100,2013-09-29 09:40:00,
2013-09-29 05:45:00,78.0,71.0,29.95,WNW,292,3.0,5.0,79,0.00,,,0.06,Rainwise IP-100,2013-09-29 09:45:00,
2013-09-29 05:50:00,77.2,71.0,29.96,WNW,292,1.4,3.0,82,0.00,,,0.06,Rainwise IP-100,2013-09-29 09:50:00,
2013-09-29 05:55:00,76.9,72.0,29.96,WNW,292,0.0,3.0,84,0.00,,,0.06,Rainwise IP-100,2013-09-29 09:55:00,
2013-09-29 06:00:00,76.7,72.0,29.96,WSW,247,4.9,4.9,85,0.00,,,0.06,Rainwise IP-100,2013-09-29 10:00:00,
2013-09-29 06:05:00,76.4,72.0,29.96,ENE,67,1.2,5.0,86,0.00,,,0.06,Rainwise IP-100,2013-09-29 10:05:00,
2013-09-29 06:11:00,76.2,72.0,29.96,NW,315,1.4,2.0,87,0.00,,,0.06,Rainwise IP-100,2013-09-29 10:11:00,
2013-09-29 06:16:00,76.0,71.0,29.96,West,270,0.0,5.0,87,0.00,,,0.06,Rainwise IP-100,2013-09-29 10:16:00,
2013-09-29 06:21:00,75.8,71.0,29.96,NE,45,1.9,3.0,88,0.00,,,0.06,Rainwise IP-100,2013-09-29 10:21:00,
2013-09-29 06:26:00,75.8,71.0,29.96,NNE,22,0.0,3.0,88,0.00,,,0.06,Rainwise IP-100,2013-09-29 10:26:00,
2013-09-29 06:31:00,75.8,72.0,29.96,NNE,22,0.0,3.0,89,0.00,,,0.06,Rainwise IP-100,2013-09-29 10:31:00,
2013-09-29 06:36:00,75.6,72.0,29.96,NNW,337,5.1,5.1,89,0.00,,,0.06,Rainwise IP-100,2013-09-29 10:36:00,
2013-09-29 06:41:00,75.6,72.0,29.96,NNE,22,5.6,6.0,89,0.00,,,0.06,Rainwise IP-100,2013-09-29 10:41:00,
2013-09-29 06:46:00,75.6,72.0,29.97,NNW,337,2.8,5.0,89,0.00,,,0.06,Rainwise IP-100,2013-09-29 10:46:00,
2013-09-29 06:52:00,75.5,72.0,29.97,WNW,292,5.1,7.0,90,0.00,,,0.06,Rainwise IP-100,2013-09-29 10:52:00,
2013-09-29 06:57:00,75.4,72.0,29.97,WNW,292,2.1,6.0,90,0.00,,,0.06,Rainwise IP-100,2013-09-29 10:57:00,
2013-09-29 07:02:00,75.3,72.0,29.97,West,270,4.0,4.0,90,0.00,,,0.06,Rainwise IP-100,2013-09-29 11:02:00,
2013-09-29 07:07:00,75.2,72.0,29.97,WNW,292,0.0,4.0,91,0.00,,,0.06,Rainwise IP-100,2013-09-29 11:07:00,
2013-09-29 07:12:00,75.0,72.0,29.98,WNW,292,0.0,1.0,91,0.00,,,0.06,Rainwise IP-100,2013-09-29 11:12:00,
2013-09-29 07:17:00,74.8,72.0,29.97,WSW,247,2.1,0.0,91,0.00,,,0.06,Rainwise IP-100,2013-09-29 11:17:00,
2013-09-29 07:22:00,74.6,72.0,29.97,West,270,3.0,3.0,91,0.00,,,0.06,Rainwise IP-100,2013-09-29 11:22:00,
2013-09-29 07:28:00,74.5,72.0,29.97,WSW,247,0.0,3.0,92,0.00,,,0.06,Rainwise IP-100,2013-09-29 11:28:00,
2013-09-29 07:33:00,74.4,72.0,29.98,WSW,247,0.0,1.0,92,0.00,,,0.06,Rainwise IP-100,2013-09-29 11:33:00,
2013-09-29 07:38:00,74.4,72.0,29.98,WNW,292,1.2,3.0,92,0.00,,,0.06,Rainwise IP-100,2013-09-29 11:38:00,
2013-09-29 07:43:00,74.4,72.0,29.98,WNW,292,1.4,2.0,93,0.00,,,0.06,Rainwise IP-100,2013-09-29 11:43:00,
2013-09-29 07:48:00,74.4,72.0,29.98,WNW,292,0.0,2.0,93,0.00,,,0.06,Rainwise IP-100,2013-09-29 11:48:00,
2013-09-29 07:53:00,74.5,72.0,29.98,WNW,292,0.0,2.0,93,0.00,,,0.06,Rainwise IP-100,2013-09-29 11:53:00,
2013-09-29 07:58:00,74.6,72.0,29.98,WNW,292,0.0,3.0,93,0.00,,,0.06,Rainwise IP-100,2013-09-29 11:58:00,
2013-09-29 08:03:00,74.8,72.0,29.98,WNW,292,0.0,2.0,93,0.00,,,0.06,Rainwise IP-100,2013-09-29 12:03:00,
2013-09-29 08:09:00,75.0,73.0,29.99,West,270,2.3,3.0,93,0.00,,,0.06,Rainwise IP-100,2013-09-29 12:09:00,
2013-09-29 08:14:00,75.3,73.0,29.98,WNW,292,3.5,4.0,93,0.00,,,0.06,Rainwise IP-100,2013-09-29 12:14:00,
2013-09-29 08:19:00,75.7,73.0,29.99,WNW,292,2.6,4.0,92,0.00,,,0.06,Rainwise IP-100,2013-09-29 12:19:00,
2013-09-29 08:24:00,76.3,73.0,29.99,WNW,292,0.0,4.0,91,0.00,,,0.06,Rainwise IP-100,2013-09-29 12:24:00,
2013-09-29 08:29:00,76.9,74.0,29.99,NW,315,2.6,2.6,91,0.00,,,0.06,Rainwise IP-100,2013-09-29 12:29:00,
2013-09-29 08:34:00,77.5,74.0,29.99,WNW,292,2.8,3.0,89,0.00,,,0.06,Rainwise IP-100,2013-09-29 12:34:00,
2013-09-29 08:39:00,78.3,74.0,29.99,NNW,337,0.0,4.0,87,0.00,,,0.06,Rainwise IP-100,2013-09-29 12:39:00,
2013-09-29 08:45:00,79.3,74.0,29.99,North,360,2.8,3.0,85,0.00,,,0.06,Rainwise IP-100,2013-09-29 12:45:00,
2013-09-29 08:50:00,80.5,73.0,29.99,NE,45,9.1,9.1,79,0.00,,,0.06,Rainwise IP-100,2013-09-29 12:50:00,
2013-09-29 08:55:00,81.8,71.0,29.99,ENE,67,3.5,9.0,71,0.00,,,0.06,Rainwise IP-100,2013-09-29 12:55:00,
2013-09-29 09:00:00,82.0,70.0,29.99,East,90,4.2,10.0,68,0.00,,,0.06,Rainwise IP-100,2013-09-29 13:00:00,
2013-09-29 09:05:00,81.9,70.0,29.99,ENE,67,4.7,8.0,67,0.00,,,0.06,Rainwise IP-100,2013-09-29 13:05:00,
2013-09-29 09:10:00,82.2,70.0,29.99,NE,45,5.4,6.0,67,0.00,,,0.06,Rainwise IP-100,2013-09-29 13:10:00,
2013-09-29 09:15:00,82.6,70.0,30.00,ENE,67,4.2,7.0,67,0.00,,,0.06,Rainwise IP-100,2013-09-29 13:15:00,
2013-09-29 09:20:00,83.1,70.0,29.99,NE,45,8.2,9.0,65,0.00,,,0.06,Rainwise IP-100,2013-09-29 13:20:00,
2013-09-29 09:26:00,83.3,70.0,29.99,ENE,67,5.1,10.0,64,0.00,,,0.06,Rainwise IP-100,2013-09-29 13:26:00,
2013-09-29 09:31:00,83.4,69.0,29.99,ENE,67,3.0,8.0,62,0.00,,,0.06,Rainwise IP-100,2013-09-29 13:31:00,
2013-09-29 09:36:00,83.4,69.0,30.00,NE,45,4.9,9.0,62,0.00,,,0.06,Rainwise IP-100,2013-09-29 13:36:00,
2013-09-29 09:41:00,83.6,69.0,30.00,ENE,67,5.4,8.0,62,0.00,,,0.06,Rainwise IP-100,2013-09-29 13:41:00,
2013-09-29 09:46:00,84.1,69.0,30.00,ENE,67,6.3,9.0,62,0.00,,,0.06,Rainwise IP-100,2013-09-29 13:46:00,
2013-09-29 09:51:00,84.3,70.0,30.00,NE,45,7.5,8.0,62,0.00,,,0.06,Rainwise IP-100,2013-09-29 13:51:00,
2013-09-29 09:57:00,84.3,69.0,30.00,NE,45,6.5,10.0,61,0.00,,,0.06,Rainwise IP-100,2013-09-29 13:57:00,
2013-09-29 10:00:00,84.2,69.0,30.00,ENE,67,3.0,10.0,61,0.00,,,0.06,Rainwise IP-100,2013-09-29 14:00:00,
2013-09-29 10:05:00,84.3,69.0,30.00,NE,45,3.7,9.0,61,0.00,,,0.06,Rainwise IP-100,2013-09-29 14:05:00,
2013-09-29 10:10:00,84.6,69.0,30.00,East,90,4.4,10.0,60,0.00,,,0.06,Rainwise IP-100,2013-09-29 14:10:00,
2013-09-29 10:16:00,84.5,69.0,30.00,ENE,67,3.7,8.0,60,0.00,,,0.06,Rainwise IP-100,2013-09-29 14:16:00,
2013-09-29 10:21:00,84.2,69.0,30.01,ENE,67,8.6,8.6,60,0.00,,,0.06,Rainwise IP-100,2013-09-29 14:21:00,
2013-09-29 10:26:00,84.5,69.0,30.00,NNE,22,5.6,11.0,60,0.00,,,0.06,Rainwise IP-100,2013-09-29 14:26:00,
2013-09-29 10:31:00,84.3,68.0,30.00,ENE,67,3.0,8.0,59,0.00,,,0.06,Rainwise IP-100,2013-09-29 14:31:00,
2013-09-29 10:36:00,84.1,68.0,30.00,NE,45,5.6,9.0,59,0.00,,,0.06,Rainwise IP-100,2013-09-29 14:36:00,
2013-09-29 10:41:00,84.8,68.0,30.00,NNE,22,4.4,9.0,58,0.00,,,0.06,Rainwise IP-100,2013-09-29 14:41:00,
2013-09-29 10:46:00,84.8,68.0,30.00,ENE,67,5.1,9.0,58,0.00,,,0.06,Rainwise IP-100,2013-09-29 14:46:00,
2013-09-29 10:52:00,84.4,68.0,30.00,ENE,67,4.9,9.0,59,0.00,,,0.06,Rainwise IP-100,2013-09-29 14:52:00,
2013-09-29 10:57:00,84.7,69.0,30.00,ENE,67,7.0,8.0,60,0.00,,,0.06,Rainwise IP-100,2013-09-29 14:57:00,
2013-09-29 11:02:00,84.7,69.0,30.01,East,90,7.0,7.0,59,0.00,,,0.06,Rainwise IP-100,2013-09-29 15:02:00,
2013-09-29 11:07:00,84.9,69.0,30.01,NNE,22,4.9,7.0,60,0.00,,,0.06,Rainwise IP-100,2013-09-29 15:07:00,
2013-09-29 11:12:00,85.3,69.0,30.00,ESE,112,2.6,9.0,59,0.00,,,0.06,Rainwise IP-100,2013-09-29 15:12:00,
2013-09-29 11:17:00,84.9,69.0,30.01,ENE,67,3.7,8.0,59,0.00,,,0.06,Rainwise IP-100,2013-09-29 15:17:00,
2013-09-29 11:22:00,85.0,69.0,30.01,NE,45,11.2,11.2,59,0.00,,,0.06,Rainwise IP-100,2013-09-29 15:22:00,
2013-09-29 11:27:00,85.3,69.0,30.00,NE,45,4.2,12.0,58,0.00,,,0.06,Rainwise IP-100,2013-09-29 15:27:00,
2013-09-29 11:33:00,84.9,68.0,30.01,East,90,7.2,10.0,58,0.00,,,0.06,Rainwise IP-100,2013-09-29 15:33:00,
2013-09-29 11:38:00,84.4,68.0,30.01,ENE,67,2.3,10.0,58,0.00,,,0.06,Rainwise IP-100,2013-09-29 15:38:00,
2013-09-29 11:43:00,84.3,68.0,30.00,ENE,67,4.0,8.0,59,0.00,,,0.06,Rainwise IP-100,2013-09-29 15:43:00,
2013-09-29 11:48:00,84.2,68.0,30.00,ENE,67,6.5,8.0,59,0.00,,,0.06,Rainwise IP-100,2013-09-29 15:48:00,
2013-09-29 11:53:00,84.6,69.0,30.00,ENE,67,4.9,9.0,60,0.00,,,0.06,Rainwise IP-100,2013-09-29 15:53:00,
2013-09-29 11:58:00,84.9,69.0,30.00,ENE,67,7.5,9.0,60,0.00,,,0.06,Rainwise IP-100,2013-09-29 15:58:00,
2013-09-29 12:03:00,85.0,69.0,30.00,NE,45,6.1,10.0,60,0.00,,,0.06,Rainwise IP-100,2013-09-29 16:03:00,
2013-09-29 12:09:00,84.6,69.0,30.00,ENE,67,5.4,10.0,60,0.00,,,0.06,Rainwise IP-100,2013-09-29 16:09:00,
2013-09-29 12:14:00,84.4,69.0,30.00,NE,45,7.0,11.0,61,0.00,,,0.06,Rainwise IP-100,2013-09-29 16:14:00,
2013-09-29 12:19:00,84.7,69.0,29.99,NE,45,10.3,12.0,60,0.00,,,0.06,Rainwise IP-100,2013-09-29 16:19:00,
2013-09-29 12:24:00,85.0,69.0,29.99,NNE,22,9.6,11.0,59,0.00,,,0.06,Rainwise IP-100,2013-09-29 16:24:00,
2013-09-29 12:29:00,84.6,69.0,29.99,ENE,67,5.1,12.0,60,0.00,,,0.06,Rainwise IP-100,2013-09-29 16:29:00,
2013-09-29 12:34:00,84.2,69.0,29.99,East,90,4.9,9.0,61,0.00,,,0.06,Rainwise IP-100,2013-09-29 16:34:00,
2013-09-29 12:39:00,84.3,69.0,29.99,ENE,67,4.2,11.0,61,0.00,,,0.06,Rainwise IP-100,2013-09-29 16:39:00,
2013-09-29 12:44:00,84.5,69.0,29.98,NNE,22,6.3,12.0,59,0.00,,,0.06,Rainwise IP-100,2013-09-29 16:44:00,
2013-09-29 12:50:00,84.6,69.0,29.98,ENE,67,4.2,11.0,59,0.00,,,0.06,Rainwise IP-100,2013-09-29 16:50:00,
2013-09-29 12:55:00,84.5,69.0,29.98,East,90,7.0,7.0,60,0.00,,,0.06,Rainwise IP-100,2013-09-29 16:55:00,
2013-09-29 13:00:00,84.3,69.0,29.98,NNE,22,7.5,9.0,60,0.00,,,0.06,Rainwise IP-100,2013-09-29 17:00:00,
2013-09-29 13:05:00,84.3,68.0,29.98,ENE,67,4.4,9.0,59,0.00,,,0.06,Rainwise IP-100,2013-09-29 17:05:00,
2013-09-29 13:10:00,84.7,69.0,29.97,NE,45,7.5,11.0,59,0.00,,,0.06,Rainwise IP-100,2013-09-29 17:10:00,
2013-09-29 13:15:00,84.8,68.0,29.97,ENE,67,5.6,10.0,58,0.00,,,0.06,Rainwise IP-100,2013-09-29 17:15:00,
2013-09-29 13:20:00,84.7,68.0,29.97,ENE,67,5.8,8.0,58,0.00,,,0.06,Rainwise IP-100,2013-09-29 17:20:00,
2013-09-29 13:26:00,84.9,68.0,29.97,ENE,67,4.0,8.0,58,0.00,,,0.06,Rainwise IP-100,2013-09-29 17:26:00,
2013-09-29 13:31:00,85.2,68.0,29.97,NNE,22,7.0,11.0,57,0.00,,,0.06,Rainwise IP-100,2013-09-29 17:31:00,
2013-09-29 13:36:00,85.4,68.0,29.96,NNE,22,6.8,10.0,56,0.00,,,0.06,Rainwise IP-100,2013-09-29 17:36:00,
2013-09-29 13:41:00,85.1,68.0,29.96,ENE,67,7.2,12.0,57,0.00,,,0.06,Rainwise IP-100,2013-09-29 17:41:00,
2013-09-29 13:46:00,84.8,67.0,29.96,NE,45,7.7,11.0,57,0.00,,,0.06,Rainwise IP-100,2013-09-29 17:46:00,
2013-09-29 13:51:00,84.8,68.0,29.96,NE,45,4.9,10.0,58,0.00,,,0.06,Rainwise IP-100,2013-09-29 17:51:00,
2013-09-29 13:56:00,84.6,69.0,29.96,ENE,67,4.7,12.0,59,0.00,,,0.06,Rainwise IP-100,2013-09-29 17:56:00,
2013-09-29 14:01:00,84.3,68.0,29.95,NE,45,7.2,10.0,59,0.00,,,0.06,Rainwise IP-100,2013-09-29 18:01:00,
2013-09-29 14:07:00,84.4,68.0,29.96,East,90,3.3,11.0,59,0.00,,,0.06,Rainwise IP-100,2013-09-29 18:07:00,
2013-09-29 14:12:00,84.5,69.0,29.96,NNE,22,6.1,11.0,59,0.00,,,0.06,Rainwise IP-100,2013-09-29 18:12:00,
2013-09-29 14:17:00,84.6,69.0,29.95,ESE,112,3.5,10.0,59,0.00,,,0.06,Rainwise IP-100,2013-09-29 18:17:00,
2013-09-29 14:22:00,84.7,69.0,29.95,NE,45,9.3,10.0,59,0.00,,,0.06,Rainwise IP-100,2013-09-29 18:22:00,
2013-09-29 14:27:00,84.4,68.0,29.95,NE,45,4.9,10.0,59,0.00,,,0.06,Rainwise IP-100,2013-09-29 18:27:00,
2013-09-29 14:32:00,84.4,68.0,29.95,ENE,67,4.9,9.0,59,0.00,,,0.06,Rainwise IP-100,2013-09-29 18:32:00,
2013-09-29 14:37:00,84.4,68.0,29.95,ENE,67,4.9,8.0,59,0.00,,,0.06,Rainwise IP-100,2013-09-29 18:37:00,
2013-09-29 14:43:00,84.4,69.0,29.94,NNE,22,7.0,11.0,61,0.00,,,0.06,Rainwise IP-100,2013-09-29 18:43:00,
2013-09-29 14:48:00,84.5,69.0,29.94,ENE,67,4.0,10.0,61,0.00,,,0.06,Rainwise IP-100,2013-09-29 18:48:00,
2013-09-29 14:53:00,84.3,69.0,29.94,NE,45,9.1,10.0,61,0.00,,,0.06,Rainwise IP-100,2013-09-29 18:53:00,
2013-09-29 14:58:00,84.1,69.0,29.94,ENE,67,4.0,9.0,61,0.00,,,0.06,Rainwise IP-100,2013-09-29 18:58:00,
2013-09-29 15:03:00,84.2,69.0,29.94,ENE,67,4.4,11.0,61,0.00,,,0.06,Rainwise IP-100,2013-09-29 19:03:00,
2013-09-29 15:08:00,84.2,69.0,29.93,NE,45,8.2,10.0,61,0.00,,,0.06,Rainwise IP-100,2013-09-29 19:08:00,
2013-09-29 15:13:00,84.3,69.0,29.93,ENE,67,7.7,9.0,60,0.00,,,0.06,Rainwise IP-100,2013-09-29 19:13:00,
2013-09-29 15:18:00,84.1,69.0,29.93,East,90,6.1,11.0,61,0.00,,,0.06,Rainwise IP-100,2013-09-29 19:18:00,
2013-09-29 15:24:00,83.9,69.0,29.93,ENE,67,3.7,9.0,61,0.00,,,0.06,Rainwise IP-100,2013-09-29 19:24:00,
2013-09-29 15:29:00,84.2,70.0,29.93,ENE,67,5.4,11.0,62,0.00,,,0.06,Rainwise IP-100,2013-09-29 19:29:00,
2013-09-29 15:34:00,84.1,69.0,29.93,ENE,67,6.1,9.0,62,0.00,,,0.06,Rainwise IP-100,2013-09-29 19:34:00,
2013-09-29 15:39:00,84.1,69.0,29.93,ENE,67,7.0,10.0,62,0.00,,,0.06,Rainwise IP-100,2013-09-29 19:39:00,
2013-09-29 15:44:00,84.2,70.0,29.93,ENE,67,3.5,11.0,62,0.00,,,0.06,Rainwise IP-100,2013-09-29 19:44:00,
2013-09-29 15:49:00,84.4,70.0,29.92,East,90,5.4,9.0,63,0.00,,,0.06,Rainwise IP-100,2013-09-29 19:49:00,
2013-09-29 15:54:00,84.0,71.0,29.92,NE,45,7.9,11.0,64,0.00,,,0.06,Rainwise IP-100,2013-09-29 19:54:00,
2013-09-29 16:00:00,83.9,71.0,29.92,NNE,22,8.4,12.0,64,0.00,,,0.06,Rainwise IP-100,2013-09-29 20:00:00,
2013-09-29 16:05:00,84.2,71.0,29.92,NE,45,7.2,13.0,64,0.00,,,0.06,Rainwise IP-100,2013-09-29 20:05:00,
2013-09-29 16:10:00,84.0,71.0,29.92,ENE,67,6.3,13.0,64,0.00,,,0.06,Rainwise IP-100,2013-09-29 20:10:00,
2013-09-29 16:15:00,83.9,71.0,29.92,ENE,67,8.4,12.0,64,0.00,,,0.06,Rainwise IP-100,2013-09-29 20:15:00,
2013-09-29 16:20:00,84.1,71.0,29.92,ENE,67,6.3,12.0,64,0.00,,,0.06,Rainwise IP-100,2013-09-29 20:20:00,
2013-09-29 16:25:00,84.0,71.0,29.92,NE,45,10.5,10.5,65,0.00,,,0.06,Rainwise IP-100,2013-09-29 20:25:00,
2013-09-29 16:30:00,83.8,70.0,29.92,ENE,67,4.0,11.0,64,0.00,,,0.06,Rainwise IP-100,2013-09-29 20:30:00,
2013-09-29 16:35:00,83.7,70.0,29.92,NNE,22,7.5,13.0,64,0.00,,,0.06,Rainwise IP-100,2013-09-29 20:35:00,
2013-09-29 16:41:00,83.8,71.0,29.91,NE,45,11.0,11.0,65,0.00,,,0.06,Rainwise IP-100,2013-09-29 20:41:00,
2013-09-29 16:46:00,83.7,70.0,29.92,East,90,4.0,13.0,64,0.00,,,0.06,Rainwise IP-100,2013-09-29 20:46:00,
2013-09-29 16:51:00,83.6,70.0,29.92,ENE,67,6.1,10.0,65,0.00,,,0.06,Rainwise IP-100,2013-09-29 20:51:00,
2013-09-29 16:56:00,83.6,71.0,29.92,East,90,7.0,12.0,66,0.00,,,0.06,Rainwise IP-100,2013-09-29 20:56:00,
2013-09-29 17:01:00,83.5,70.0,29.92,East,90,7.0,11.0,65,0.00,,,0.06,Rainwise IP-100,2013-09-29 21:01:00,
2013-09-29 17:06:00,83.6,70.0,29.93,ENE,67,6.5,11.0,65,0.00,,,0.06,Rainwise IP-100,2013-09-29 21:06:00,
2013-09-29 17:11:00,83.6,70.0,29.93,East,90,9.6,11.0,64,0.00,,,0.06,Rainwise IP-100,2013-09-29 21:11:00,
2013-09-29 17:17:00,83.5,69.0,29.93,NE,45,8.2,13.0,63,0.00,,,0.06,Rainwise IP-100,2013-09-29 21:17:00,
2013-09-29 17:22:00,83.4,70.0,29.93,NNE,22,7.7,8.0,64,0.00,,,0.06,Rainwise IP-100,2013-09-29 21:22:00,
2013-09-29 17:27:00,83.6,70.0,29.92,ENE,67,6.1,12.0,64,0.00,,,0.06,Rainwise IP-100,2013-09-29 21:27:00,
2013-09-29 17:32:00,83.5,70.0,29.93,ENE,67,5.4,12.0,65,0.00,,,0.06,Rainwise IP-100,2013-09-29 21:32:00,
2013-09-29 17:37:00,83.3,71.0,29.93,ENE,67,4.4,11.0,66,0.00,,,0.06,Rainwise IP-100,2013-09-29 21:37:00,
2013-09-29 17:42:00,83.4,71.0,29.93,ENE,67,6.5,14.0,66,0.00,,,0.06,Rainwise IP-100,2013-09-29 21:42:00,
2013-09-29 17:47:00,83.4,71.0,29.93,East,90,7.9,11.0,66,0.00,,,0.06,Rainwise IP-100,2013-09-29 21:47:00,
2013-09-29 17:52:00,83.0,70.0,29.93,ENE,67,8.2,12.0,66,0.00,,,0.06,Rainwise IP-100,2013-09-29 21:52:00,
2013-09-29 17:58:00,82.9,71.0,29.93,NE,45,9.6,12.0,67,0.00,,,0.06,Rainwise IP-100,2013-09-29 21:58:00,
2013-09-29 18:03:00,82.7,71.0,29.93,ENE,67,4.9,11.0,67,0.00,,,0.06,Rainwise IP-100,2013-09-29 22:03:00,
2013-09-29 18:08:00,82.5,71.0,29.93,ENE,67,8.4,15.0,68,0.00,,,0.06,Rainwise IP-100,2013-09-29 22:08:00,
2013-09-29 18:13:00,82.4,71.0,29.93,ENE,67,6.5,11.0,69,0.00,,,0.06,Rainwise IP-100,2013-09-29 22:13:00,
2013-09-29 18:18:00,82.4,71.0,29.94,ENE,67,6.1,9.0,69,0.00,,,0.06,Rainwise IP-100,2013-09-29 22:18:00,
2013-09-29 18:23:00,82.3,71.0,29.94,ENE,67,5.6,10.0,69,0.00,,,0.06,Rainwise IP-100,2013-09-29 22:23:00,
2013-09-29 18:28:00,82.3,70.0,29.93,ENE,67,5.1,12.0,68,0.00,,,0.06,Rainwise IP-100,2013-09-29 22:28:00,
2013-09-29 18:34:00,82.2,71.0,29.94,ENE,67,5.6,12.0,69,0.00,,,0.06,Rainwise IP-100,2013-09-29 22:34:00,
2013-09-29 18:39:00,82.1,71.0,29.94,ENE,67,8.2,13.0,69,0.00,,,0.06,Rainwise IP-100,2013-09-29 22:39:00,
2013-09-29 18:44:00,82.1,71.0,29.94,ENE,67,11.7,13.0,69,0.00,,,0.06,Rainwise IP-100,2013-09-29 22:44:00,
2013-09-29 18:49:00,82.1,71.0,29.94,ENE,67,5.6,11.0,69,0.00,,,0.06,Rainwise IP-100,2013-09-29 22:49:00,
2013-09-29 18:53:00,82.0,71.0,29.94,NNE,22,10.3,11.0,69,0.00,,,0.06,Rainwise IP-100,2013-09-29 22:53:00,
2013-09-29 18:58:00,81.9,71.0,29.94,ENE,67,7.2,14.0,69,0.00,,,0.06,Rainwise IP-100,2013-09-29 22:58:00,
2013-09-29 19:03:00,81.8,70.0,29.94,ENE,67,6.5,13.0,69,0.00,,,0.06,Rainwise IP-100,2013-09-29 23:03:00,
2013-09-29 19:08:00,81.7,70.0,29.95,ENE,67,5.1,11.0,69,0.00,,,0.06,Rainwise IP-100,2013-09-29 23:08:00,
2013-09-29 19:13:00,81.5,70.0,29.95,ENE,67,3.5,12.0,69,0.00,,,0.06,Rainwise IP-100,2013-09-29 23:13:00,
2013-09-29 19:18:00,81.5,70.0,29.94,NE,45,8.2,12.0,69,0.00,,,0.06,Rainwise IP-100,2013-09-29 23:18:00,
2013-09-29 19:23:00,81.5,71.0,29.95,NNE,22,6.1,11.0,70,0.00,,,0.06,Rainwise IP-100,2013-09-29 23:23:00,
2013-09-29 19:29:00,81.5,70.0,29.95,ENE,67,5.4,12.0,69,0.00,,,0.06,Rainwise IP-100,2013-09-29 23:29:00,
2013-09-29 19:34:00,81.4,70.0,29.95,NE,45,7.2,10.0,69,0.00,,,0.06,Rainwise IP-100,2013-09-29 23:34:00,
2013-09-29 19:39:00,81.4,70.0,29.96,ENE,67,9.3,11.0,69,0.00,,,0.06,Rainwise IP-100,2013-09-29 23:39:00,
2013-09-29 19:44:00,81.4,70.0,29.95,NE,45,6.8,9.0,69,0.00,,,0.06,Rainwise IP-100,2013-09-29 23:44:00,
2013-09-29 19:49:00,81.4,70.0,29.95,ENE,67,7.2,13.0,69,0.00,,,0.06,Rainwise IP-100,2013-09-29 23:49:00,
2013-09-29 19:54:00,81.3,70.0,29.96,NNE,22,7.5,11.0,69,0.00,,,0.06,Rainwise IP-100,2013-09-29 23:54:00,
2013-09-29 19:59:00,81.4,70.0,29.96,NNE,22,5.6,11.0,69,0.00,,,0.06,Rainwise IP-100,2013-09-29 23:59:00,
2013-09-29 20:04:00,81.3,70.0,29.96,ENE,67,5.1,11.0,69,0.00,,,0.06,Rainwise IP-100,2013-09-30 00:04:00,
2013-09-29 20:10:00,81.3,71.0,29.97,ENE,67,7.2,12.0,70,0.00,,,0.06,Rainwise IP-100,2013-09-30 00:10:00,
2013-09-29 20:15:00,81.3,71.0,29.96,NE,45,10.7,12.0,70,0.00,,,0.06,Rainwise IP-100,2013-09-30 00:15:00,
2013-09-29 20:20:00,81.2,71.0,29.96,NE,45,8.2,9.0,70,0.00,,,0.06,Rainwise IP-100,2013-09-30 00:20:00,
2013-09-29 20:25:00,81.2,70.0,29.97,ESE,112,3.3,11.0,69,0.00,,,0.06,Rainwise IP-100,2013-09-30 00:25:00,
2013-09-29 20:30:00,81.2,70.0,29.97,ENE,67,4.4,11.0,69,0.00,,,0.06,Rainwise IP-100,2013-09-30 00:30:00,
2013-09-29 20:35:00,81.1,70.0,29.97,East,90,4.4,8.0,69,0.00,,,0.06,Rainwise IP-100,2013-09-30 00:35:00,
2013-09-29 20:40:00,81.1,70.0,29.97,ENE,67,5.4,12.0,69,0.00,,,0.06,Rainwise IP-100,2013-09-30 00:40:00,
2013-09-29 20:46:00,81.1,70.0,29.97,East,90,3.7,11.0,69,0.00,,,0.06,Rainwise IP-100,2013-09-30 00:46:00,
2013-09-29 20:51:00,81.0,70.0,29.97,ENE,67,3.7,9.0,69,0.00,,,0.06,Rainwise IP-100,2013-09-30 00:51:00,
2013-09-29 20:56:00,81.1,70.0,29.97,ENE,67,5.1,10.0,70,0.00,,,0.06,Rainwise IP-100,2013-09-30 00:56:00,
2013-09-29 21:01:00,81.1,70.0,29.98,East,90,4.2,9.0,70,0.00,,,0.06,Rainwise IP-100,2013-09-30 01:01:00,
2013-09-29 21:06:00,81.0,71.0,29.97,ENE,67,4.7,7.0,71,0.00,,,0.06,Rainwise IP-100,2013-09-30 01:06:00,
2013-09-29 21:11:00,81.0,70.0,29.97,East,90,4.7,10.0,70,0.00,,,0.06,Rainwise IP-100,2013-09-30 01:11:00,
2013-09-29 21:16:00,81.0,70.0,29.98,NE,45,9.6,12.0,70,0.00,,,0.06,Rainwise IP-100,2013-09-30 01:16:00,
2013-09-29 21:21:00,80.9,70.0,29.98,NE,45,3.3,10.0,70,0.00,,,0.06,Rainwise IP-100,2013-09-30 01:21:00,
2013-09-29 21:27:00,81.0,70.0,29.98,East,90,8.6,11.0,70,0.00,,,0.06,Rainwise IP-100,2013-09-30 01:27:00,
2013-09-29 21:32:00,81.1,70.0,29.98,East,90,6.5,11.0,70,0.00,,,0.06,Rainwise IP-100,2013-09-30 01:32:00,
2013-09-29 21:37:00,81.0,70.0,29.98,ENE,67,7.2,11.0,70,0.00,,,0.06,Rainwise IP-100,2013-09-30 01:37:00,
2013-09-29 21:42:00,80.9,71.0,29.98,ENE,67,4.2,11.0,71,0.00,,,0.06,Rainwise IP-100,2013-09-30 01:42:00,
2013-09-29 21:47:00,81.0,71.0,29.99,NE,45,5.6,9.0,71,0.00,,,0.06,Rainwise IP-100,2013-09-30 01:47:00,
2013-09-29 21:52:00,81.1,71.0,29.98,NE,45,5.8,9.0,71,0.00,,,0.06,Rainwise IP-100,2013-09-30 01:52:00,
2013-09-29 21:57:00,81.0,70.0,29.99,ENE,67,10.5,11.0,70,0.00,,,0.06,Rainwise IP-100,2013-09-30 01:57:00,
2013-09-29 22:03:00,81.1,70.0,29.99,East,90,4.9,12.0,70,0.00,,,0.06,Rainwise IP-100,2013-09-30 02:03:00,
2013-09-29 22:08:00,81.1,70.0,29.99,ENE,67,6.5,11.0,70,0.00,,,0.06,Rainwise IP-100,2013-09-30 02:08:00,
2013-09-29 22:13:00,81.0,70.0,29.99,ENE,67,5.1,9.0,69,0.00,,,0.06,Rainwise IP-100,2013-09-30 02:13:00,
2013-09-29 22:18:00,81.0,70.0,30.00,ENE,67,7.7,10.0,69,0.00,,,0.06,Rainwise IP-100,2013-09-30 02:18:00,
2013-09-29 22:23:00,81.0,70.0,30.00,ENE,67,7.5,11.0,69,0.00,,,0.06,Rainwise IP-100,2013-09-30 02:23:00,
2013-09-29 22:28:00,81.0,70.0,30.00,ENE,67,8.9,12.0,69,0.00,,,0.06,Rainwise IP-100,2013-09-30 02:28:00,
2013-09-29 22:33:00,81.0,70.0,30.00,ENE,67,6.8,11.0,69,0.00,,,0.06,Rainwise IP-100,2013-09-30 02:33:00,
2013-09-29 22:38:00,80.9,70.0,30.00,ENE,67,4.4,10.0,69,0.00,,,0.06,Rainwise IP-100,2013-09-30 02:38:00,
2013-09-29 22:44:00,80.9,70.0,30.00,East,90,4.7,10.0,69,0.00,,,0.06,Rainwise IP-100,2013-09-30 02:44:00,
2013-09-29 22:49:00,80.9,70.0,30.00,ENE,67,6.3,9.0,69,0.00,,,0.06,Rainwise IP-100,2013-09-30 02:49:00,
2013-09-29 22:54:00,80.9,70.0,29.99,East,90,4.4,10.0,69,0.00,,,0.06,Rainwise IP-100,2013-09-30 02:54:00,
2013-09-29 22:59:00,80.9,69.0,29.99,ENE,67,8.2,8.2,68,0.00,,,0.06,Rainwise IP-100,2013-09-30 02:59:00,
2013-09-29 23:04:00,80.9,69.0,29.99,ENE,67,5.4,8.0,68,0.00,,,0.06,Rainwise IP-100,2013-09-30 03:04:00,
2013-09-29 23:09:00,80.9,69.0,29.99,NNE,22,4.9,10.0,68,0.00,,,0.06,Rainwise IP-100,2013-09-30 03:09:00,
2013-09-29 23:14:00,80.8,69.0,29.99,ENE,67,7.9,11.0,69,0.00,,,0.06,Rainwise IP-100,2013-09-30 03:14:00,
2013-09-29 23:20:00,80.8,70.0,29.99,ENE,67,6.1,11.0,70,0.00,,,0.06,Rainwise IP-100,2013-09-30 03:20:00,
2013-09-29 23:25:00,80.7,70.0,29.99,NE,45,7.0,9.0,70,0.00,,,0.06,Rainwise IP-100,2013-09-30 03:25:00,
2013-09-29 23:30:00,80.7,70.0,29.99,ENE,67,7.0,10.0,70,0.00,,,0.06,Rainwise IP-100,2013-09-30 03:30:00,
2013-09-29 23:35:00,80.7,70.0,30.00,NNE,22,4.7,9.0,70,0.00,,,0.06,Rainwise IP-100,2013-09-30 03:35:00,
2013-09-29 23:40:00,80.6,70.0,29.99,ENE,67,5.8,7.0,70,0.00,,,0.06,Rainwise IP-100,2013-09-30 03:40:00,
2013-09-29 23:45:00,80.6,70.0,29.99,ENE,67,4.0,8.0,71,0.00,,,0.06,Rainwise IP-100,2013-09-30 03:45:00,
2013-09-29 23:50:00,80.6,70.0,29.99,ENE,67,6.3,10.0,71,0.00,,,0.06,Rainwise IP-100,2013-09-30 03:50:00,
2013-09-29 23:55:00,80.6,70.0,29.99,ENE,67,7.7,10.0,70,0.00,,,0.06,Rainwise IP-100,2013-09-30 03:55:00,